Home   Weather   Elista   Past weeks
Flag for Russia

Past Weather in Elista, Russia — Yesterday and Last 2 Weeks

Now
72 °F

Clear.


Feels Like: 75 °F
Forecast: 86 / 69 °F
Wind: 3 mph from Northeast

Location: Elista Airport

Current Time: Jul 21, 2019 at 3:18:23 am

Latest Report: Jul 21, 2019 at 2:30 am


Visibility: N/A

Pressure: 30.07 "Hg

Humidity: 65%

Dew Point: 59 °F

Location of ElistaLocation

Past Weather in Elista — Graph

°F

Elista Temperature Yesterday

Maximum temperature yesterday: 90 °F (at 3:00 pm)
Minimum temperature yesterday: 70 °F (at 12:00 am)
Average temperature yesterday: 79 °F

High & Low Weather Summary for the Past Weeks

 TemperatureHumidityPressure
High97 °F (Jul 8, 2:30 pm)100% (Jul 12, 2:00 am)30.07 "Hg (Jul 12, 2:00 am)
Low59 °F (Jul 12, 8:30 am)14% (Jul 6, 3:30 pm)29.59 "Hg (Jul 12, 5:30 am)
Average75 °F53%29.79 "Hg
* Reported Jul 6 2:00 am — Jul 21 2:00 am, Elista. Weather by CustomWeather, © 2019

Note: Actual official high and low records may vary slightly from our data, if they occured in-between our weather recording intervals... More about our weather records

Advertising

Elista Weather History for the Previous 24 Hours

Scroll right to see more
 ConditionsComfort  
Time TempWeatherWind HumidityBarometerVisibility
2:00 am
Sun, Jul 21
72 °FClear.6 mph65%30.07 "HgN/A
1:30 am72 °FClear.6 mph69%30.07 "HgN/A
1:00 am73 °FClear.6 mph61%30.07 "HgN/A
12:30 am75 °FClear.6 mph61%30.07 "HgN/A
12:00 am75 °FClear.3 mph57%30.07 "HgN/A
11:30 pm
Sat, Jul 20
75 °FClear.3 mph57%30.07 "HgN/A
11:00 pm77 °FClear.3 mph51%30.04 "HgN/A
10:30 pm75 °FClear.6 mph57%30.04 "HgN/A
10:00 pm75 °FClear.6 mph61%30.04 "HgN/A
9:30 pm75 °FClear.6 mph61%30.07 "HgN/A
9:00 pm77 °FWarm.6 mph57%30.07 "HgN/A
8:30 pm79 °FClear.6 mph51%30.07 "Hg10 mi
8:00 pm81 °FClear.6 mph48%30.04 "Hg10 mi
7:30 pm82 °FSunny.3 mph45%30.04 "Hg10 mi
7:00 pm84 °FSunny.3 mph37%30.04 "Hg10 mi
6:30 pm86 °FSunny.6 mph35%30.04 "Hg10 mi
6:00 pm86 °FPassing clouds.6 mph33%30.04 "HgN/A
5:30 pm90 °FPassing clouds.6 mph31%30.04 "HgN/A
5:00 pm86 °FPassing clouds.3 mph31%30.04 "HgN/A
4:30 pm88 °FPassing clouds.6 mph29%30.04 "HgN/A
4:00 pm90 °FPassing clouds.3 mph27%30.04 "HgN/A
3:30 pm90 °FPassing clouds.1 mph29%30.04 "HgN/A
3:00 pm90 °FPassing clouds.1 mph29%30.04 "HgN/A
2:30 pm86 °FPassing clouds.3 mph33%30.04 "HgN/A
2:00 pm88 °FPassing clouds.6 mph31%30.04 "HgN/A
1:30 pm84 °FPassing clouds.6 mph40%30.04 "HgN/A
1:00 pm86 °FPassing clouds.6 mph35%30.04 "HgN/A
12:30 pm86 °FPassing clouds.6 mph38%30.04 "HgN/A
12:00 pm84 °FPassing clouds.6 mph43%30.07 "HgN/A
11:30 am82 °FPassing clouds.3 mph45%30.07 "HgN/A
11:00 am82 °FPassing clouds.1 mph48%30.07 "HgN/A
10:30 am82 °FPassing clouds.3 mph48%30.07 "HgN/A
10:00 am81 °FPassing clouds.3 mph54%30.07 "HgN/A
9:30 am81 °FScattered clouds.1 mph58%30.07 "HgN/A
9:00 am81 °FScattered clouds.1 mph62%30.07 "HgN/A
8:30 am79 °FPassing clouds.3 mph65%30.07 "HgN/A
8:00 am77 °FPassing clouds.6 mph69%30.07 "HgN/A
7:30 am77 °FWarm.3 mph69%30.07 "HgN/A
7:00 am73 °FSunny.3 mph83%30.04 "HgN/A
6:30 am73 °FSunny.No wind83%30.04 "HgN/A
6:00 am70 °FSunny.3 mph88%30.04 "HgN/A
5:30 am70 °FMild.8 mph88%30.04 "HgN/A
5:00 am70 °FMild.8 mph88%30.04 "HgN/A
4:30 am70 °FMild.8 mph88%30.01 "HgN/A
4:00 am70 °FMild.8 mph88%30.01 "HgN/A
3:30 am70 °FMild.6 mph88%30.01 "HgN/A
3:00 am70 °FMild.6 mph94%30.01 "Hg3 mi
Weather by CustomWeather, © 2019

See weather overview